Theta_e
339 337 339 339 340 340 339 333 328 326 326 334 340 338 337 337 336 336 334 330 331 335 333 331 329 329 330 330 330 331 332 329 322 320 323 323 323 326 327 325 320 320 323 323 324 324 324 323 323 323 322 322 322 320 318 318 318 315 314 318 319 316 316 316 316 317 317 319 318 315 314 315 314 314 314 314 314 314 313 313 313 313 314 314 314
340 337 339 339 341 340 339 335 329 327 325 330 338 339 338 338 337 336 334 330 331 334 333 331 329 328 329 330 330 331 332 330 325 321 322 322 321 322 323 323 322 325 328 328 328 327 327 325 323 321 320 319 319 318 315 316 316 313 313 315 313 311 312 313 314 316 317 319 321 318 315 315 314 314 314 314 314 313 313 313 313 313 313 313 313
343 339 339 340 341 341 339 337 330 328 326 327 335 339 338 338 338 337 335 330 331 334 333 332 331 328 328 329 329 331 332 332 329 324 322 321 322 324 326 327 328 328 328 329 328 328 329 328 323 319 318 316 315 315 314 315 314 313 312 311 310 311 312 313 314 317 317 318 319 317 315 315 315 314 314 314 313 313 313 313 313 313 314 313 313
344 339 339 340 341 341 340 338 332 328 328 326 330 337 338 338 339 338 336 331 330 333 333 333 332 330 328 328 329 330 331 332 332 329 325 323 325 328 331 331 331 330 329 329 328 327 328 329 324 319 318 315 314 314 314 314 312 312 311 311 312 313 313 315 316 317 317 316 316 315 315 315 314 315 314 313 313 313 313 313 313 313 313 313 313
344 340 339 340 341 341 340 339 334 329 328 328 329 335 337 337 339 339 337 332 329 332 333 333 333 332 329 328 328 329 329 331 332 332 329 327 328 330 331 331 332 331 330 330 329 328 328 329 326 320 318 316 314 314 313 312 312 312 311 313 315 315 314 315 316 316 316 315 315 314 314 314 315 314 313 313 313 313 312 313 313 313 313 313 313
343 341 340 340 341 341 341 339 335 329 328 330 332 335 336 336 338 339 339 334 329 331 331 332 333 332 331 329 329 328 328 329 331 332 332 331 330 331 331 330 331 331 330 330 329 328 328 330 328 322 318 315 313 313 313 314 316 317 317 318 318 316 315 314 314 314 314 314 314 314 313 314 315 315 314 313 313 313 312 312 313 313 313 313 313
343 342 341 340 341 341 340 339 336 329 327 330 333 336 337 336 338 339 339 336 331 330 331 331 332 332 331 330 329 328 328 328 330 331 331 332 332 332 332 332 331 331 331 331 330 329 329 331 330 325 318 314 314 316 318 321 324 324 323 322 320 319 316 314 313 313 313 313 312 313 313 314 315 315 314 314 313 313 313 312 312 313 313 313 313
343 343 341 340 342 341 339 338 336 330 327 328 332 335 335 334 337 339 338 338 333 330 332 331 330 331 331 330 329 328 328 327 329 330 331 332 333 333 332 333 332 331 331 330 330 329 330 332 331 326 320 314 315 321 325 328 329 328 325 324 322 320 317 315 314 314 313 313 311 312 313 314 314 314 315 314 314 313 313 313 313 313 312 313 313
342 343 342 341 341 338 336 338 336 331 328 327 329 333 335 334 335 338 338 338 336 332 332 332 330 330 331 331 328 328 328 327 327 328 330 332 333 333 333 333 332 331 330 330 329 328 329 332 332 328 321 315 318 326 329 331 331 330 329 328 328 324 318 317 316 316 315 313 311 312 312 313 314 314 315 314 314 313 313 313 313 313 312 312 313
341 342 342 339 337 335 336 338 337 333 330 328 329 330 334 335 334 337 337 337 337 334 333 333 331 329 331 331 329 328 327 328 327 327 327 328 331 332 333 333 331 331 330 330 329 326 327 332 332 329 324 317 322 331 331 332 333 332 331 331 331 329 323 319 318 319 318 315 312 313 312 312 314 314 315 314 313 313 313 313 313 313 313 313 313
341 342 340 336 335 335 336 338 338 335 331 328 329 330 333 334 334 335 336 337 338 335 333 333 332 329 330 331 329 327 326 327 328 327 326 326 327 328 331 333 332 331 331 329 328 325 326 333 332 328 326 320 320 330 332 332 333 333 333 332 333 332 328 323 322 322 322 319 314 313 313 312 313 314 314 314 313 314 314 314 313 313 313 313 313
341 341 338 335 335 336 337 338 338 336 332 330 329 330 333 334 335 336 336 337 337 336 334 334 332 328 329 330 328 327 325 326 328 329 328 326 326 325 326 331 333 332 331 329 326 323 325 331 332 327 326 323 315 321 331 332 333 333 334 333 332 332 330 327 325 323 322 319 314 313 314 312 312 314 314 314 314 314 314 314 314 313 313 313 313
340 340 337 335 335 337 337 337 337 336 334 331 329 329 333 336 336 337 337 337 337 337 334 334 332 329 329 329 328 327 324 326 328 329 328 325 324 324 323 327 332 332 329 328 324 322 325 329 331 328 326 327 316 315 329 332 332 333 333 332 330 330 330 328 324 320 321 318 314 313 313 312 312 313 314 314 314 314 314 314 314 314 314 313 313
339 339 338 335 336 338 338 337 337 336 335 332 331 329 331 334 335 335 335 336 338 336 335 334 331 330 330 329 329 327 324 325 328 329 327 323 322 323 322 324 329 329 328 328 322 322 326 328 331 330 326 328 320 316 328 332 332 333 332 332 329 329 330 328 324 320 321 319 315 313 312 312 312 312 313 314 314 314 314 314 314 314 314 313 313
338 339 339 338 338 338 338 337 337 336 334 333 332 330 330 330 332 332 332 335 337 336 335 334 331 330 330 330 329 326 324 325 327 328 325 321 320 320 320 323 327 326 326 326 322 322 324 326 330 330 327 328 323 318 327 331 332 333 331 332 330 330 329 327 326 323 324 322 316 311 311 311 311 311 312 314 314 314 314 314 314 313 313 312 312
338 339 340 339 339 339 338 338 337 336 335 334 334 334 332 329 330 330 331 334 336 336 335 334 331 330 330 330 329 326 323 323 327 328 324 321 318 318 320 323 326 325 323 323 321 321 322 325 329 329 328 328 325 318 324 330 331 332 331 331 331 330 327 327 328 326 324 322 316 311 310 310 310 311 311 313 313 313 313 314 313 313 312 311 311
337 338 339 339 339 339 339 338 335 335 336 335 334 335 333 331 330 329 330 333 336 336 335 334 331 330 330 329 328 325 323 323 326 327 325 322 317 317 321 322 325 323 320 320 319 319 320 323 325 325 325 328 328 321 322 329 331 332 331 331 331 330 327 328 328 327 325 322 319 312 308 309 309 309 310 312 312 313 313 313 313 312 312 311 311
336 337 338 338 338 337 336 335 331 330 332 333 333 334 334 332 331 330 329 331 334 335 335 335 333 331 330 327 325 322 322 324 326 327 325 320 316 317 321 322 323 321 318 319 319 320 321 322 321 321 322 326 328 325 322 327 332 332 332 331 331 330 327 328 327 328 328 325 321 311 307 308 308 308 309 310 311 311 311 312 312 311 312 311 311
333 333 334 334 334 333 331 330 328 328 328 329 332 333 333 333 333 332 329 329 332 333 333 333 332 330 328 326 322 320 323 325 326 327 322 317 316 319 321 322 323 320 319 319 318 320 323 322 320 320 319 322 327 327 322 325 331 331 331 331 331 330 327 328 326 326 328 327 322 314 310 308 307 307 308 309 310 310 310 311 311 311 311 311 311
329 329 329 330 330 329 329 329 328 328 328 327 329 331 332 333 335 334 332 331 331 330 329 329 328 328 327 325 321 321 323 325 325 324 319 317 318 322 322 322 323 322 321 320 318 319 321 322 321 320 318 319 326 329 323 323 330 330 330 331 330 330 328 328 326 323 325 325 322 319 315 310 308 307 307 308 308 308 309 310 310 310 311 311 311
330 330 329 328 329 329 329 329 329 329 328 328 327 328 330 332 334 334 333 333 331 327 326 327 327 328 327 324 323 323 323 323 324 321 318 319 321 323 322 321 323 323 322 320 319 318 318 319 320 320 318 318 325 330 326 321 327 329 329 330 330 330 329 328 326 321 322 323 321 320 318 313 309 307 307 307 307 308 308 309 309 310 310 310 310
331 331 331 331 330 329 328 328 328 329 329 329 330 328 328 330 333 333 332 331 327 327 328 330 330 330 327 324 324 324 324 325 326 323 318 320 323 324 323 322 322 322 320 319 319 319 318 317 317 320 319 318 323 329 327 321 324 329 329 330 330 330 329 328 325 322 323 323 321 318 316 312 309 307 307 306 307 307 307 307 308 309 309 309 310
327 328 332 333 330 328 328 327 327 329 330 330 331 330 329 329 332 333 331 327 324 327 329 330 330 330 326 323 326 326 325 327 329 327 320 318 322 324 324 322 321 321 320 320 319 318 317 316 316 317 318 317 320 327 329 322 321 327 329 329 329 328 327 326 325 325 326 324 321 319 316 311 309 308 307 307 307 307 307 307 307 308 308 308 308
326 326 328 329 328 328 328 327 326 329 331 331 330 330 330 329 331 333 330 325 322 323 326 328 328 327 325 325 328 327 326 327 329 330 325 321 321 323 325 323 321 321 321 321 320 317 315 316 315 315 317 317 319 325 328 323 319 325 328 329 328 327 325 325 326 328 327 325 322 320 317 312 309 308 307 306 306 306 307 307 307 307 307 307 307
325 325 325 325 327 327 326 327 326 327 329 331 330 330 331 330 331 332 331 326 319 319 326 329 328 327 327 329 329 326 326 328 328 330 329 326 322 323 325 323 322 322 322 323 322 321 317 315 316 316 318 318 319 322 323 321 320 323 327 328 327 326 326 326 326 327 326 325 323 321 318 314 311 309 307 306 307 307 307 307 307 307 306 306 306
323 323 324 326 327 326 325 327 326 326 328 329 329 328 331 331 331 332 332 329 320 317 327 330 329 329 328 329 330 327 327 329 329 330 331 329 325 324 323 322 322 323 323 323 323 323 318 316 317 317 318 319 321 321 320 319 318 320 324 327 326 323 324 325 324 324 324 323 322 322 320 317 314 311 308 306 307 307 307 307 307 307 306 306 306
321 320 321 324 326 325 325 326 324 323 324 327 328 327 329 331 332 333 332 331 323 317 324 330 330 330 328 329 331 329 328 329 331 330 331 332 329 328 324 322 322 323 324 323 324 323 320 321 322 322 322 322 325 325 322 319 317 318 320 324 324 321 320 322 323 323 323 322 320 321 321 319 318 315 311 307 307 307 307 307 307 307 307 306 306
320 319 319 321 322 324 324 324 324 322 323 327 328 327 329 331 332 333 331 331 328 319 319 326 329 330 330 331 331 330 331 331 332 331 331 332 332 331 328 324 322 323 324 323 324 323 322 325 327 327 327 326 327 326 324 321 319 319 318 321 321 320 320 321 322 324 324 322 320 320 321 320 320 318 315 310 306 307 307 307 307 307 307 306 306
319 318 317 318 319 321 321 322 322 322 325 328 328 327 328 331 332 332 332 332 330 324 318 320 326 330 331 331 331 332 332 332 332 332 331 332 332 331 330 328 325 323 325 324 324 325 324 325 326 327 328 328 328 328 327 323 322 321 319 321 323 322 322 321 323 326 327 326 325 324 322 320 318 317 316 314 309 307 307 307 307 307 307 306 306
318 316 315 316 317 318 319 320 321 322 325 329 329 327 327 330 332 332 332 331 331 329 324 323 326 330 331 331 332 332 332 332 332 332 331 331 331 330 330 330 328 325 325 325 324 326 326 326 327 327 328 328 327 327 327 324 324 324 322 323 325 324 323 323 326 328 328 329 329 328 325 323 320 318 317 317 315 310 307 306 306 307 307 306 306
318 316 315 315 315 317 317 317 320 323 325 328 328 327 327 328 330 331 332 332 331 330 328 328 329 330 332 332 332 332 332 332 332 332 331 331 331 330 330 330 330 327 326 326 326 327 327 328 329 329 329 328 328 327 327 324 324 326 326 325 325 324 320 322 327 328 329 329 328 328 327 326 325 323 321 320 319 316 313 309 307 306 306 306 306
317 316 315 313 312 313 314 314 319 324 325 326 326 326 326 327 327 327 328 330 331 332 331 330 330 330 332 332 332 332 332 332 332 331 331 331 331 331 330 330 330 329 328 328 328 328 328 328 329 330 329 329 329 328 327 325 325 326 328 327 326 325 323 321 323 325 327 327 328 329 327 327 328 327 325 323 322 320 318 314 310 308 306 306 306
317 316 314 312 312 313 314 314 318 323 324 325 325 325 325 325 324 322 323 325 326 329 331 331 332 332 332 332 332 332 331 331 331 330 330 330 330 330 329 329 329 329 329 329 329 329 329 328 328 329 329 330 330 329 327 326 326 327 327 328 328 327 326 324 322 323 324 324 326 328 327 326 327 328 327 326 324 323 321 318 314 312 308 306 306
317 316 313 312 312 314 315 315 317 321 322 323 323 323 322 321 320 317 319 320 321 322 324 325 328 331 332 333 333 332 331 331 331 331 331 330 330 330 329 329 329 328 327 329 329 330 330 329 329 329 330 330 330 330 327 326 326 328 328 328 329 328 328 328 327 326 324 324 324 325 326 326 326 327 327 327 326 325 323 320 317 315 312 309 307
317 315 313 311 311 313 313 313 316 319 320 319 318 317 317 317 315 314 314 317 320 320 320 319 321 323 326 329 331 332 331 330 331 332 332 331 331 332 332 330 330 328 326 327 329 330 330 330 330 329 330 331 331 331 327 326 327 328 329 328 329 329 329 329 328 328 327 326 325 324 325 325 325 326 326 326 326 325 324 322 320 318 315 313 310
316 316 314 311 310 310 310 309 314 317 315 314 313 313 314 313 312 314 314 317 320 320 320 319 318 319 320 322 325 329 332 331 330 330 331 331 330 331 332 332 331 328 326 327 329 329 328 327 328 329 330 330 331 331 327 327 328 328 329 328 328 329 329 328 328 328 328 327 326 326 325 325 325 324 325 325 325 324 323 321 320 319 317 315 313
315 316 314 312 310 308 307 307 309 311 309 310 312 312 311 308 310 316 319 320 321 320 320 320 319 319 320 319 320 323 328 330 329 328 328 328 329 330 331 332 332 331 329 328 328 327 325 324 325 327 329 330 330 330 328 328 330 329 328 328 328 328 328 328 328 327 328 328 328 328 327 326 327 326 326 326 325 324 323 322 321 321 320 318 317
316 316 314 312 311 308 307 306 306 306 306 309 312 311 308 306 310 317 319 319 318 317 319 322 320 319 319 319 319 320 322 324 325 326 328 326 326 329 331 332 332 332 333 331 327 325 325 324 323 324 327 329 330 330 329 329 329 328 327 327 328 328 326 326 326 326 325 325 324 326 328 327 328 328 328 327 327 326 325 324 324 324 323 321 320
317 316 314 312 311 309 307 306 306 306 307 309 311 310 310 309 311 313 314 312 313 315 318 321 321 321 320 319 319 320 320 319 320 324 328 328 326 328 330 332 332 332 333 333 329 325 324 324 324 326 327 327 330 330 329 329 328 328 328 328 329 329 327 326 325 324 323 321 319 321 326 328 328 329 328 328 328 328 327 326 325 324 324 324 323
318 316 314 312 311 310 308 307 307 308 310 311 311 311 312 312 312 312 310 309 309 313 315 317 319 320 319 318 317 319 319 316 315 317 321 324 325 327 329 331 333 331 332 333 330 327 324 326 328 330 330 329 330 330 329 329 329 329 328 329 329 329 328 327 326 324 324 324 320 318 323 327 329 329 329 328 329 328 327 326 325 325 324 324 324
318 316 314 312 311 310 308 307 308 310 312 312 312 313 313 312 312 312 311 309 307 308 309 309 311 312 311 311 312 315 317 314 310 311 314 316 318 322 324 326 329 331 331 331 331 329 328 329 330 331 332 332 332 330 329 330 331 330 329 330 329 329 330 329 327 326 324 325 323 321 321 325 327 328 329 329 328 327 327 326 326 325 325 325 324
318 316 314 312 311 310 309 308 309 312 314 313 313 313 312 312 312 311 311 310 307 306 307 306 306 306 306 306 306 308 310 308 306 308 311 311 312 314 314 315 320 324 326 327 329 330 330 330 330 330 331 332 332 331 330 331 332 331 330 330 330 329 329 329 328 327 325 324 324 323 322 322 325 327 328 328 327 327 327 327 327 326 326 325 325
319 317 315 313 312 311 309 308 310 313 315 315 315 313 312 312 311 310 310 310 309 308 308 308 307 306 305 304 304 303 304 303 303 305 307 308 309 310 309 310 315 319 320 320 322 324 326 327 328 329 330 330 330 330 331 331 331 331 331 330 329 329 328 328 327 326 326 325 324 324 324 322 322 324 326 327 327 327 327 328 327 327 327 326 326
318 318 316 314 312 312 310 309 310 313 314 315 315 313 312 312 311 309 309 310 310 309 308 308 308 307 307 305 304 303 303 303 303 304 304 305 306 307 307 308 312 316 317 318 319 319 320 322 324 327 329 330 330 330 330 330 331 332 331 330 329 328 328 328 327 327 326 325 325 326 326 324 322 322 324 325 325 326 327 328 328 328 327 326 326
318 318 317 315 314 313 312 309 309 311 312 313 314 314 312 311 311 309 310 310 310 309 309 309 308 308 307 307 306 304 303 303 304 304 305 305 305 306 307 307 308 309 312 315 319 320 321 322 324 326 328 329 330 330 330 330 331 331 331 331 329 329 328 327 327 327 327 327 327 326 327 327 326 324 324 324 324 325 326 327 327 327 327 326 326
318 319 318 317 316 314 314 311 309 310 310 312 314 314 312 310 310 310 310 310 310 310 310 309 308 308 307 307 307 306 304 303 304 305 305 305 306 305 306 308 310 310 310 312 316 319 321 322 323 323 324 325 327 328 328 329 331 331 329 329 329 329 329 328 328 328 327 327 328 328 327 327 328 327 326 326 326 326 326 325 325 326 326 326 326
319 319 318 318 317 315 314 313 311 310 310 311 313 313 312 310 310 310 310 310 310 311 311 309 309 308 308 307 307 307 306 305 304 304 305 305 306 306 307 309 311 314 315 314 315 317 319 320 320 320 320 321 322 323 324 325 327 329 329 329 329 329 329 328 328 328 328 328 328 328 328 328 328 328 327 327 327 328 328 327 326 325 326 326 326
319 319 319 318 318 316 315 315 314 312 311 311 311 311 311 311 311 311 311 311 311 311 311 311 310 308 308 308 308 308 307 306 306 305 304 304 305 306 307 308 309 312 314 315 315 315 316 317 317 318 319 319 320 320 321 322 323 325 326 327 329 330 331 330 329 329 329 329 328 328 328 328 328 329 328 328 328 328 328 328 327 326 326 326 326
319 319 320 319 318 317 316 316 315 314 312 312 312 312 311 312 312 312 312 312 312 312 312 312 311 310 309 308 308 308 307 307 306 306 306 305 305 304 304 305 306 307 309 311 312 314 314 314 314 315 316 317 318 319 321 321 322 323 323 323 325 327 328 329 329 329 329 329 329 328 328 329 329 329 329 329 329 329 329 329 329 328 327 327 326
320 319 320 319 318 318 317 317 316 314 313 312 313 313 312 313 313 312 312 312 313 313 312 312 312 311 309 309 308 308 308 307 307 306 306 306 305 305 305 304 304 304 305 305 307 308 310 311 312 313 315 316 317 318 320 321 322 323 323 322 322 323 324 325 326 327 329 330 330 329 328 328 329 329 329 330 330 329 329 329 329 329 328 328 327
320 320 320 319 318 318 318 317 316 315 314 313 314 314 314 314 313 313 312 312 313 313 312 312 312 311 310 309 308 308 308 308 307 307 306 306 306 306 305 305 305 305 304 304 304 304 305 306 307 309 311 313 315 316 318 319 320 322 323 323 323 324 324 325 326 326 328 329 330 330 329 328 328 328 329 329 329 330 329 329 329 329 328 328 328
Wind_Speed
17 15 14 13 11 9 9 9 10 12 14 17 18 18 17 16 16 15 16 18 18 17 17 16 15 16 16 16 16 15 14 13 14 17 20 20 20 20 18 17 16 15 13 12 11 9 9 8 7 6 6 5 5 5 6 6 6 5 5 7 9 9 7 5 3 5 14 18 20 21 20 20 19 18 17 17 16 15 15 15 15 16 16 16 17
18 16 15 13 11 10 9 9 9 11 14 16 18 18 17 16 15 15 16 17 17 17 17 16 15 15 16 16 16 16 15 14 14 17 19 19 19 19 17 16 16 15 13 13 11 10 9 9 8 7 7 7 7 7 8 8 7 7 8 9 11 11 8 6 4 6 14 18 20 20 20 19 18 18 17 16 15 15 14 15 15 15 16 16 16
17 17 15 14 12 10 9 9 9 10 13 15 17 17 17 16 15 15 16 17 16 16 16 15 15 15 15 15 15 16 16 15 14 15 17 18 18 18 17 16 15 14 13 13 12 11 9 10 11 10 9 10 11 11 11 10 10 10 10 12 13 13 10 8 6 7 13 18 21 21 21 19 17 17 17 16 15 14 14 14 14 15 15 15 15
17 18 16 15 12 11 9 9 9 9 12 14 15 16 17 16 15 15 15 17 16 16 15 15 14 14 14 15 15 15 15 15 14 14 15 16 17 17 15 15 14 13 12 11 11 10 10 10 12 12 12 14 16 15 14 13 13 13 12 14 16 15 12 9 8 9 12 17 21 21 21 18 16 16 16 15 14 14 13 13 13 14 14 14 14
17 18 17 16 13 11 9 9 9 9 11 13 14 14 15 16 16 15 15 17 16 15 15 14 14 14 13 14 14 14 14 14 14 13 14 14 15 14 13 13 12 12 11 11 10 10 9 11 12 12 14 17 19 18 17 17 16 15 15 17 19 17 15 13 12 14 15 16 19 19 20 18 16 15 15 14 14 14 13 13 13 13 13 13 13
17 17 17 16 14 12 10 10 9 9 11 13 14 13 14 15 16 16 16 17 17 15 14 14 13 14 13 13 12 12 12 13 14 13 13 13 13 12 11 11 11 11 11 10 10 9 9 11 12 13 14 18 21 21 20 20 20 19 18 19 20 19 17 16 15 16 17 16 17 17 18 18 15 15 14 14 13 13 13 12 13 13 12 12 12
16 16 16 15 14 13 10 10 10 10 10 12 14 14 14 14 15 16 15 16 17 15 14 13 13 14 13 12 12 11 11 11 12 13 13 13 13 12 10 10 10 10 10 10 10 10 9 11 12 13 14 19 23 24 24 23 23 22 20 20 21 20 18 17 16 16 16 16 16 15 15 16 15 14 13 13 13 12 12 12 12 12 12 12 11
15 15 15 15 15 13 11 11 11 11 10 11 12 14 14 14 15 15 14 15 17 16 14 13 12 13 12 11 11 10 10 10 11 12 12 12 12 12 10 10 10 10 9 10 10 10 9 11 12 13 14 18 24 26 25 25 24 22 20 19 20 20 19 17 16 15 15 14 15 14 14 14 14 14 13 13 13 12 11 11 11 12 12 11 10
16 15 15 16 16 14 12 11 11 11 11 10 11 13 14 13 14 15 14 14 16 17 15 13 12 12 12 10 10 10 9 9 10 11 11 11 12 11 10 10 10 10 9 9 10 9 8 10 13 13 14 18 24 26 26 25 24 22 19 18 18 18 18 17 16 15 14 13 13 13 13 13 13 13 12 12 12 11 11 10 10 12 11 11 10
16 16 17 17 16 14 12 11 11 11 11 10 10 13 14 13 14 15 14 14 16 17 16 14 12 11 11 10 9 9 9 9 8 10 10 10 10 10 9 9 10 10 9 8 9 9 7 9 12 13 13 17 24 27 26 25 24 22 19 17 16 16 16 17 16 15 13 12 11 11 13 13 13 13 12 12 12 11 10 10 10 11 11 10 9
16 17 18 17 16 13 12 11 11 10 11 11 11 12 13 14 14 15 14 14 16 17 16 15 13 12 11 9 8 8 7 7 7 8 9 10 9 8 8 8 9 9 8 8 8 9 7 9 11 12 12 16 23 26 25 24 23 22 19 16 15 14 15 15 14 13 12 10 9 10 12 13 12 12 12 12 12 11 10 9 10 10 10 10 9
17 17 18 17 15 13 12 12 11 10 11 11 11 12 12 12 13 15 14 13 16 18 17 15 13 12 10 9 8 7 6 7 7 7 8 9 8 7 7 8 8 7 7 7 8 9 8 8 9 10 11 15 20 23 24 23 23 22 19 16 13 12 13 13 13 12 11 10 9 10 11 13 12 11 12 11 11 11 10 9 9 10 9 9 9
18 17 18 17 15 12 11 12 11 11 12 12 12 12 12 12 13 14 13 13 16 18 17 15 13 11 10 8 8 7 6 7 7 7 8 8 8 7 8 8 8 6 6 7 7 9 8 7 8 9 11 14 18 23 24 23 22 21 19 16 12 10 11 13 12 11 11 10 10 10 10 12 12 11 11 11 11 10 10 9 9 9 9 9 9
18 17 17 16 14 12 12 12 11 11 12 12 12 13 12 13 13 13 12 12 16 17 16 15 13 11 9 9 7 6 5 7 7 7 7 6 6 6 7 9 8 6 6 7 7 8 9 7 8 10 12 13 16 23 25 24 22 21 20 17 12 9 9 12 13 12 11 10 9 11 11 12 12 11 11 11 11 10 9 9 9 9 9 9 8
16 17 17 16 14 13 14 14 11 12 12 12 11 12 13 13 13 12 11 12 14 16 16 15 13 11 9 9 7 5 5 7 8 7 8 6 4 4 6 8 8 7 6 6 7 8 8 7 8 9 11 12 15 22 24 23 23 22 21 18 14 10 10 11 13 13 11 9 9 11 12 12 12 11 11 11 11 11 10 9 9 9 9 8 7
16 16 16 16 15 14 16 15 12 13 13 11 10 10 11 11 12 12 12 12 14 15 15 14 13 11 9 8 6 5 6 8 8 8 9 6 3 4 6 7 7 7 6 5 6 7 8 8 7 8 10 12 14 20 22 22 22 21 20 18 15 11 10 10 10 11 10 7 9 10 11 12 13 12 11 11 11 11 10 10 9 9 9 8 7
15 15 15 15 15 15 16 15 13 13 13 11 10 9 10 10 11 11 12 12 14 15 14 14 13 10 8 7 6 5 6 7 8 9 9 5 4 6 7 7 7 7 6 5 6 7 8 8 7 7 9 12 14 18 21 22 22 20 19 18 16 13 10 9 7 8 7 5 7 8 10 12 13 13 11 11 12 12 11 10 10 9 9 8 7
14 13 13 13 14 14 14 14 12 12 13 12 11 10 10 10 10 11 12 12 14 15 13 14 12 10 8 7 6 6 7 8 8 9 8 5 5 8 8 7 7 7 6 5 6 6 8 9 8 8 8 11 13 17 20 21 21 19 18 17 15 14 11 9 6 5 5 4 6 7 8 11 14 14 12 12 12 12 11 10 10 9 9 8 8
15 12 12 10 11 11 11 10 10 10 11 12 12 12 12 11 10 10 11 11 13 14 14 14 12 10 9 8 7 6 8 9 9 9 7 5 7 8 8 8 8 7 5 5 5 6 7 8 9 9 9 11 13 16 19 22 21 18 18 17 15 13 11 9 7 5 4 4 4 5 6 8 12 13 13 13 12 12 10 10 10 9 9 8 7
16 14 13 10 9 9 8 8 8 8 8 10 12 12 12 11 10 10 11 11 11 12 13 13 12 10 8 8 8 7 8 9 9 8 7 7 7 8 7 8 9 7 4 3 3 4 6 7 9 9 9 11 14 16 19 22 21 19 19 17 14 13 11 9 7 6 4 2 2 2 3 5 8 10 12 13 12 12 11 10 9 8 8 7 7
16 14 13 11 10 8 7 7 7 6 6 7 10 12 13 12 11 11 11 11 11 11 12 12 11 10 9 8 9 8 8 8 8 8 8 9 8 7 7 8 8 7 4 2 2 3 5 7 8 9 9 10 14 15 17 21 21 19 19 17 14 13 11 10 8 6 4 2 2 2 2 2 4 6 9 12 12 12 11 10 9 8 7 7 6
15 14 12 11 10 8 7 6 6 6 5 6 8 11 12 12 11 12 12 11 11 11 12 12 12 10 9 8 8 8 7 7 7 8 9 10 9 7 7 7 7 6 3 2 2 3 5 7 9 9 9 10 13 15 15 20 22 20 19 16 14 12 11 10 9 7 5 3 3 3 3 2 2 2 4 10 11 11 11 10 9 8 7 6 5
15 14 12 11 8 7 6 5 6 6 5 5 6 8 10 11 12 13 12 10 11 12 13 13 12 11 8 7 7 7 6 7 7 8 9 9 9 8 7 6 6 5 3 1 0 2 4 6 9 10 10 10 12 15 15 18 23 22 19 16 13 13 11 10 9 7 6 4 4 4 4 3 2 1 1 5 9 10 9 10 10 9 7 6 5
16 15 14 11 8 6 6 5 5 5 5 5 4 5 8 10 11 13 11 10 11 14 14 13 12 10 8 8 9 8 6 6 7 8 9 9 9 9 8 7 6 5 3 2 2 1 2 6 9 10 10 11 12 14 14 16 22 23 21 17 13 12 12 10 8 6 5 4 4 4 4 4 3 2 2 2 6 9 8 8 9 8 7 6 6
18 16 14 12 9 6 6 6 5 6 5 5 5 4 6 10 12 13 12 11 12 15 16 15 13 11 10 10 10 8 7 5 6 8 10 11 10 10 9 8 6 5 3 2 3 3 1 5 9 10 11 12 14 15 14 14 19 23 22 19 13 11 12 10 7 6 5 5 4 4 5 5 4 3 2 2 3 6 8 8 7 7 7 7 7
18 16 15 13 11 8 6 6 5 5 5 4 4 4 5 8 11 12 12 11 12 15 16 16 15 14 12 11 10 8 7 5 5 7 10 13 13 11 10 8 7 5 3 2 2 4 2 6 9 11 12 14 15 15 14 13 15 21 22 21 16 11 11 10 7 6 6 6 6 6 6 6 5 4 3 3 4 5 7 8 8 8 8 8 8
18 15 14 13 12 10 8 7 6 5 5 5 4 5 5 7 10 11 11 11 12 14 15 15 15 15 13 12 11 8 7 6 5 7 8 12 13 12 10 9 8 6 4 2 2 4 7 11 12 12 13 14 15 14 12 10 10 16 22 23 19 14 11 10 8 6 7 8 8 8 7 7 6 6 5 5 5 6 7 8 9 9 9 9 9
20 16 14 13 12 10 9 8 7 6 6 7 5 6 6 8 10 10 11 11 12 14 15 14 14 13 12 12 11 9 8 6 6 7 9 11 12 12 11 9 8 7 6 4 3 5 9 11 12 12 11 11 12 12 10 7 6 10 17 21 21 17 14 12 9 7 8 9 9 9 9 9 8 7 7 7 7 8 9 9 9 10 10 9 10
20 18 15 14 13 11 10 9 9 8 8 9 7 7 7 9 10 10 11 12 13 14 15 15 13 13 12 11 10 9 9 8 6 7 8 10 11 11 12 10 9 9 8 7 6 7 10 10 9 9 8 8 9 10 9 7 7 7 11 15 16 16 15 14 10 7 8 8 8 9 10 10 10 9 8 8 8 9 10 9 9 10 11 10 10
18 17 15 15 14 13 12 10 10 9 9 9 9 8 8 9 10 10 11 12 14 15 16 15 14 14 13 11 11 10 10 9 7 6 7 10 11 11 12 11 10 10 10 9 9 10 11 10 9 8 8 8 8 9 8 7 8 9 9 11 11 13 13 12 9 8 9 9 8 8 8 9 10 10 9 9 9 10 10 10 9 10 12 11 11
16 14 14 14 14 14 12 10 11 10 9 10 10 10 9 8 8 8 10 11 14 15 16 16 16 15 14 13 11 11 11 10 9 7 7 9 10 11 11 11 11 12 12 11 12 13 13 12 11 10 9 10 9 10 10 7 6 8 9 9 9 11 12 11 10 10 10 10 9 9 8 8 8 9 10 10 10 11 11 12 11 10 11 12 12
15 13 11 12 13 12 9 10 12 11 10 10 10 10 10 10 8 7 7 9 12 14 16 16 16 16 15 14 12 11 12 12 10 9 7 7 9 10 10 12 12 13 13 12 12 13 14 14 14 13 11 11 10 12 13 9 6 7 9 7 7 9 10 10 11 12 12 12 11 11 10 9 8 9 10 11 11 12 13 14 13 11 11 12 13
14 11 9 10 11 10 8 10 14 13 11 11 10 9 10 10 9 9 8 8 9 12 14 14 15 16 14 13 13 13 12 12 11 10 8 7 7 9 9 11 11 12 13 13 13 12 13 13 14 14 12 11 11 13 16 13 8 8 8 8 7 7 8 9 10 11 12 14 14 13 13 11 9 9 10 11 12 12 13 15 15 13 12 12 12
13 10 8 9 10 9 8 11 15 15 13 12 11 9 9 9 9 10 10 9 9 10 11 11 12 14 14 13 14 14 13 12 11 10 9 8 8 9 9 10 11 11 13 14 14 12 11 11 13 14 13 12 11 12 17 15 10 10 10 9 9 8 9 10 10 10 10 12 15 16 16 14 12 10 10 11 12 13 14 16 16 15 15 13 12
12 10 8 8 9 9 8 11 15 16 14 12 11 10 9 7 6 8 10 10 9 8 8 9 9 10 11 13 14 13 14 12 11 9 9 10 10 10 11 12 12 12 13 13 14 14 12 10 11 15 16 15 12 12 16 15 12 12 12 12 11 10 11 11 11 11 10 10 12 15 17 17 16 14 12 12 12 13 14 16 17 16 16 16 14
13 11 9 8 7 7 8 11 15 15 13 11 10 9 7 6 6 7 8 10 10 8 8 8 8 7 7 9 11 13 14 13 12 11 11 11 10 11 12 14 14 14 14 14 15 15 13 9 9 14 17 16 13 13 16 16 14 14 13 14 13 13 14 14 14 14 12 12 12 12 15 18 18 16 15 14 14 15 15 16 17 17 18 18 17
13 12 10 7 6 7 8 10 12 11 10 9 9 8 7 7 9 10 10 9 9 8 9 9 8 8 6 7 8 11 13 15 14 12 12 12 11 11 11 13 16 16 15 16 17 17 15 9 6 11 17 17 15 15 17 18 16 15 15 15 15 16 16 17 17 15 15 15 13 13 15 18 19 17 16 16 16 16 16 16 16 17 18 19 19
15 13 11 8 6 7 9 10 11 11 10 11 10 10 10 10 11 11 11 9 7 8 8 7 7 6 6 6 6 7 9 13 14 13 12 12 12 12 12 13 16 15 15 17 19 18 17 11 8 11 15 18 19 17 17 18 17 16 15 15 15 14 15 17 18 17 17 17 16 15 15 17 20 19 18 17 16 16 16 15 15 16 17 17 18
17 15 12 10 8 8 9 11 12 13 14 14 13 13 12 11 11 10 9 7 5 7 7 5 5 4 5 6 7 6 6 8 12 13 12 11 11 13 13 14 15 13 12 15 18 19 16 13 13 15 15 17 20 20 18 18 18 17 16 16 16 14 14 15 18 18 17 16 16 17 17 17 20 20 19 18 17 17 17 15 15 15 16 17 17
19 17 14 12 10 10 12 13 13 15 17 17 16 15 13 11 10 9 8 7 6 7 5 4 5 6 8 9 9 9 8 7 9 11 12 13 13 13 13 13 13 13 13 14 17 18 17 16 16 18 18 18 20 21 20 17 17 18 18 17 18 17 15 16 18 19 18 17 15 16 17 18 19 20 19 18 18 18 17 16 16 16 16 17 18
22 18 16 14 12 12 14 15 16 17 17 17 16 16 13 11 11 9 6 7 8 7 6 4 4 7 10 11 12 11 10 9 9 10 11 12 13 13 14 14 13 14 15 16 17 18 18 18 18 18 20 19 18 21 22 18 17 18 19 19 20 18 17 17 19 19 19 18 17 17 18 18 19 20 19 18 18 18 18 18 18 18 18 18 18
26 22 17 15 14 14 14 15 17 17 17 16 16 16 14 10 10 8 5 6 7 7 7 7 5 2 3 7 9 10 11 11 11 11 11 11 11 11 13 15 15 16 15 15 17 18 18 19 19 19 20 20 18 20 24 23 19 19 20 20 20 20 19 18 20 20 19 18 19 19 19 20 21 20 20 19 19 19 20 20 20 20 20 20 20
28 23 19 17 16 16 16 16 17 18 17 16 16 16 14 11 8 6 5 5 6 5 7 8 9 9 6 3 1 5 9 10 11 12 12 12 12 11 11 12 14 14 14 14 15 17 19 20 21 21 21 20 20 22 26 27 23 19 19 19 19 18 19 20 21 21 20 18 19 19 19 20 22 21 21 21 21 21 21 21 22 22 23 23 23
28 24 21 19 17 17 18 17 18 18 16 15 16 17 16 12 9 7 6 5 6 5 5 8 9 10 10 9 6 2 3 7 9 11 12 12 12 12 11 11 11 11 12 13 13 14 16 17 19 21 22 22 22 24 25 26 25 22 18 18 17 17 18 20 21 21 20 19 20 20 19 19 20 21 22 22 21 21 22 22 23 23 24 25 25
31 27 24 21 18 17 18 19 18 18 16 14 16 18 17 15 13 11 8 7 7 5 3 6 8 10 11 11 10 8 4 1 5 8 9 9 10 10 10 11 12 12 11 11 12 12 12 12 13 15 18 20 22 25 24 23 25 24 20 17 14 14 17 19 19 19 19 20 21 21 21 20 19 20 21 21 21 21 22 24 24 24 24 25 25
33 30 26 21 18 18 19 20 20 19 17 15 18 19 17 15 14 12 10 8 8 6 3 4 5 8 9 10 11 10 8 5 2 3 5 6 8 8 8 9 10 11 11 11 12 12 11 11 11 11 12 13 16 20 23 24 24 23 23 24 20 17 16 15 16 19 19 21 21 22 23 23 22 21 20 20 20 21 22 24 25 25 25 25 25
36 32 27 22 19 19 19 21 21 19 17 17 19 20 18 15 13 11 9 7 7 6 3 2 2 5 7 8 9 9 10 9 7 5 3 1 2 3 4 5 7 9 9 10 11 11 11 12 12 12 12 12 12 14 17 19 20 21 23 25 25 23 22 18 15 16 17 18 20 21 23 24 25 24 23 22 21 22 22 23 25 25 25 26 26
37 33 29 24 22 21 20 21 22 20 18 17 18 19 18 16 13 12 11 9 7 5 5 4 1 1 3 5 7 8 9 9 9 8 7 6 4 3 1 1 3 6 7 9 10 11 11 12 13 13 13 13 13 14 14 14 16 18 20 22 22 24 27 26 23 20 19 19 20 20 21 25 26 26 25 25 23 23 23 23 23 24 25 26 27
39 35 31 27 24 22 21 22 22 20 17 17 18 18 17 16 14 13 12 10 8 7 7 6 4 3 1 2 4 6 7 8 8 8 8 8 6 6 4 3 1 2 4 6 8 10 11 12 13 13 14 14 14 15 15 15 15 16 17 19 21 22 24 27 27 26 26 25 25 24 22 23 26 27 27 26 25 25 25 25 24 25 26 27 28
39 35 31 28 26 24 23 23 23 21 17 16 18 18 18 16 15 14 12 11 11 11 11 8 7 6 3 1 0 3 5 6 6 6 6 6 6 5 5 4 2 1 2 3 5 8 10 12 13 14 14 15 16 17 18 17 17 16 16 17 19 20 21 23 25 26 28 29 30 31 27 23 24 27 27 26 26 26 26 27 27 27 28 29 29
39 36 33 30 27 26 26 25 24 21 17 16 18 18 18 18 17 16 14 13 12 13 13 11 10 9 6 4 2 1 3 3 4 4 4 4 4 3 3 3 2 2 2 3 5 7 9 11 13 14 16 17 17 18 19 19 19 19 18 16 16 17 18 20 23 25 27 30 30 33 33 29 26 26 24 23 25 27 28 28 28 28 30 31 31
Wind_Direction
153 152 144 139 134 123 115 117 133 152 154 155 158 156 152 149 145 143 143 142 136 126 122 119 119 123 123 122 119 116 115 111 108 121 127 123 122 121 119 114 112 110 108 105 104 106 110 113 116 126 130 136 136 130 132 132 128 127 132 116 103 97 88 86 75 139 138 122 116 114 113 114 114 117 117 118 120 121 118 114 110 108 104 99 96
155 155 147 143 139 128 119 117 126 149 158 158 159 160 157 155 151 148 148 147 140 129 124 119 116 119 122 122 120 118 117 115 111 119 127 126 122 119 116 112 109 105 97 91 91 95 100 103 104 112 121 128 132 135 134 131 130 128 131 118 108 101 92 94 96 155 146 126 119 117 118 119 119 120 119 120 122 123 120 115 113 110 106 101 97
155 158 151 146 143 134 124 118 118 142 160 162 161 163 160 159 156 152 152 152 146 134 128 121 116 116 119 119 118 117 118 119 116 118 123 124 121 117 113 110 107 102 93 84 82 91 97 97 97 101 112 123 127 132 130 128 128 128 129 120 111 104 101 105 112 151 148 131 123 120 121 122 124 124 122 123 124 124 121 117 115 111 106 101 97
158 159 154 149 147 139 128 120 116 134 156 163 163 166 165 163 160 157 157 157 152 142 134 125 119 115 116 117 115 115 117 120 123 121 120 121 120 116 115 113 110 104 95 86 77 86 100 98 95 97 110 121 123 127 126 126 126 125 125 118 111 107 107 111 125 135 135 130 124 122 122 125 128 125 124 125 125 124 121 118 114 110 105 100 97
161 160 156 154 150 144 133 125 121 130 149 160 163 167 170 169 164 161 161 161 157 149 143 133 124 117 116 115 115 116 116 120 126 128 125 124 123 122 123 123 120 112 102 96 82 82 102 105 99 96 110 121 121 123 123 123 122 120 119 115 112 112 114 117 127 124 119 121 120 122 123 127 130 128 127 127 127 124 120 118 114 109 105 99 96
163 159 157 157 152 149 142 135 129 132 147 160 165 167 173 177 171 166 165 165 162 156 150 144 132 123 120 116 115 116 115 119 126 132 133 131 130 130 133 136 132 122 110 105 92 83 102 112 106 95 106 120 119 119 120 120 117 116 116 114 113 115 118 120 121 117 116 118 120 123 125 128 133 132 131 129 129 127 122 120 116 109 104 99 94
160 156 158 158 155 153 150 146 137 137 147 160 166 166 170 179 180 172 168 168 168 163 157 151 139 129 124 119 116 117 117 117 122 128 136 138 137 136 136 140 139 131 117 109 99 86 100 115 110 96 101 118 118 117 118 116 114 114 115 115 116 118 121 123 120 115 114 117 122 125 126 129 132 133 132 130 127 128 126 122 116 109 104 99 95
157 154 158 158 158 156 156 154 142 141 145 155 163 165 165 173 182 178 172 172 173 171 164 157 146 136 130 122 117 118 118 114 118 123 134 142 141 140 136 136 139 136 122 110 101 88 101 117 115 101 100 116 118 117 116 114 113 112 115 117 119 123 127 128 123 116 113 113 120 125 128 129 132 135 135 132 128 128 128 123 116 109 104 99 96
157 153 155 157 159 155 157 156 144 139 140 147 155 163 165 168 177 177 174 177 179 176 170 164 152 142 136 127 120 119 119 118 120 123 131 139 142 140 137 137 137 136 126 114 106 95 103 119 120 109 104 116 119 117 117 115 115 114 116 117 118 125 131 132 126 117 111 109 116 124 127 130 133 136 136 132 128 129 128 124 117 109 104 100 97
156 154 156 158 157 154 156 156 147 139 134 138 146 159 165 165 168 170 173 175 180 178 174 171 160 149 144 136 127 122 120 120 122 129 133 135 138 136 134 139 140 137 129 119 112 104 108 123 123 116 111 119 122 119 120 120 118 119 119 121 120 125 133 135 128 115 106 104 113 124 127 131 133 136 137 136 133 130 127 123 117 110 105 102 96
152 155 157 157 153 151 154 157 152 141 134 136 142 153 161 163 163 167 171 173 179 180 178 175 165 158 150 144 136 126 121 124 129 135 138 136 136 132 128 138 143 139 132 125 118 113 116 132 127 118 120 126 128 126 123 124 123 123 123 125 127 130 136 135 126 113 103 101 110 124 129 134 135 138 140 139 137 129 125 123 117 111 106 103 96
149 156 157 157 152 147 152 157 156 149 143 142 144 147 155 161 164 167 170 174 179 181 182 177 168 164 155 150 143 130 125 134 137 138 140 139 142 143 135 141 146 140 136 134 125 123 123 135 129 119 127 131 135 136 131 131 128 125 126 130 135 137 136 130 122 113 105 104 110 119 127 135 138 139 141 140 137 131 128 124 116 112 109 104 99
147 156 159 160 154 147 151 157 160 159 154 149 149 149 150 155 160 165 169 177 180 180 183 178 172 167 160 160 151 131 128 139 142 141 143 141 144 152 149 147 148 145 147 145 133 131 132 139 139 126 132 134 139 144 139 138 134 129 131 134 144 145 134 126 122 115 109 111 113 117 124 135 140 141 143 141 136 131 129 125 120 117 114 109 106
146 155 161 165 160 152 153 159 161 163 161 154 154 153 149 152 157 162 167 178 179 178 180 178 174 169 165 168 162 140 135 143 145 145 149 147 145 153 153 149 148 155 156 151 142 139 142 150 150 133 136 139 141 148 145 143 138 133 134 138 148 155 145 136 128 118 115 121 120 121 126 133 141 145 145 141 134 132 132 129 126 122 120 118 117
145 152 160 166 165 160 157 161 163 166 165 159 160 156 152 155 158 161 164 174 177 177 179 179 176 173 168 170 169 153 147 148 150 156 159 156 156 165 159 152 153 164 167 159 154 152 155 158 155 136 137 143 145 152 151 147 142 138 140 144 151 165 166 148 132 124 121 127 129 128 130 135 141 147 144 138 135 135 135 134 132 129 126 125 124
145 150 158 164 166 165 162 163 166 169 167 164 166 159 155 155 156 160 162 168 176 179 180 180 179 177 172 170 172 166 160 156 157 163 166 165 173 183 169 159 162 173 180 176 169 166 167 167 161 147 142 146 149 155 157 150 145 145 147 148 153 174 179 153 134 126 121 126 134 133 136 142 144 147 145 136 136 137 139 138 137 133 130 131 129
142 149 156 161 164 163 164 166 166 167 167 165 167 167 162 158 155 158 160 163 172 179 182 183 184 182 176 172 175 174 165 160 161 166 173 182 182 178 171 164 171 177 180 181 180 177 175 175 171 167 157 152 152 156 160 154 148 149 151 152 157 180 185 153 133 118 114 132 142 139 139 148 149 149 148 139 139 139 139 138 137 136 133 135 133
131 140 148 155 160 161 166 169 169 165 164 163 166 173 173 171 163 161 162 162 170 178 183 186 189 186 179 175 170 167 166 161 159 169 180 189 177 174 171 164 171 172 169 171 173 175 174 176 178 185 180 165 159 157 162 159 152 151 152 156 165 183 184 158 147 118 108 132 144 141 136 150 155 153 153 145 143 141 140 139 137 139 138 138 135
119 123 127 140 150 158 164 166 172 166 164 165 168 174 177 180 171 166 166 166 173 180 185 188 191 187 182 175 161 154 162 161 158 171 179 174 170 171 165 158 168 165 155 164 164 167 172 178 179 185 189 178 169 161 164 165 157 151 150 156 168 181 180 165 163 140 116 125 140 142 136 150 160 160 159 153 148 147 146 143 142 144 143 139 135
113 115 116 126 134 145 153 155 165 162 166 168 172 176 178 179 174 172 170 171 178 184 187 186 187 185 181 173 163 156 156 161 160 172 173 162 167 168 157 155 172 171 150 165 170 173 179 184 181 179 185 179 173 167 166 170 163 153 150 154 166 177 177 169 166 153 133 137 159 179 151 148 164 169 167 162 155 153 153 149 150 150 146 143 137
115 116 116 123 125 131 136 138 150 150 155 163 172 175 175 176 176 175 170 175 183 187 186 181 181 178 178 176 171 164 155 164 167 174 174 164 165 163 155 154 168 171 156 168 189 201 203 203 193 183 186 179 171 169 168 173 169 158 154 158 169 177 177 171 164 162 156 169 207 233 213 163 162 171 175 172 163 159 160 158 160 159 154 151 145
123 121 117 121 120 123 125 130 139 136 133 140 159 167 171 172 170 172 172 178 181 184 182 178 178 175 179 182 174 167 161 170 172 173 175 170 166 159 154 155 158 160 156 160 191 211 217 215 203 189 189 185 173 168 168 174 174 164 160 166 175 179 180 176 167 165 170 181 201 210 226 220 170 166 184 183 176 170 168 168 168 167 164 161 156
133 129 124 124 121 125 121 120 123 121 119 119 139 153 164 169 168 169 172 175 176 181 183 179 178 177 185 184 171 171 172 178 183 180 175 172 171 163 155 156 152 146 145 131 200 224 219 215 203 192 187 184 176 171 167 174 178 170 166 170 178 182 183 183 169 163 177 186 202 207 219 223 211 261 253 196 190 184 178 177 178 177 174 172 170
136 133 131 129 128 132 122 115 110 111 110 107 126 144 160 167 169 169 170 170 173 179 182 182 178 177 187 183 175 182 189 187 196 195 180 175 177 171 160 159 156 149 143 92 27 344 219 199 191 187 180 170 168 172 169 171 179 176 172 173 176 182 185 188 172 163 186 198 206 214 226 232 234 262 310 245 202 194 192 192 190 189 187 185 186
134 133 134 136 139 142 131 128 118 114 108 103 118 137 160 168 169 171 173 169 173 177 177 180 177 176 187 187 185 192 196 187 193 196 187 183 184 177 168 166 162 159 154 90 50 34 284 198 182 174 166 157 153 163 168 163 175 180 178 175 174 183 188 194 184 176 205 226 222 224 233 236 242 253 267 264 220 202 200 206 209 206 204 201 201
136 134 136 141 148 155 152 149 139 133 129 121 128 141 162 174 175 176 179 176 176 178 179 182 178 178 188 191 194 201 201 190 184 188 191 191 190 184 177 173 165 160 162 116 64 50 84 159 163 162 157 154 146 151 162 155 164 180 184 180 177 187 196 206 207 199 224 245 245 243 243 243 249 257 251 237 229 216 204 208 217 220 219 217 216
147 142 142 146 150 156 162 167 166 171 171 157 152 156 164 178 183 184 187 188 183 183 187 189 184 182 187 192 198 205 204 204 195 186 191 193 194 194 190 181 166 163 170 152 80 78 113 129 134 143 147 150 143 138 152 153 149 171 187 190 191 199 207 215 222 225 243 254 256 257 259 260 261 265 262 245 232 230 220 213 218 223 226 227 227
168 161 159 159 158 162 170 181 190 203 191 174 169 168 175 183 189 195 198 201 193 190 194 195 191 188 191 193 199 206 203 207 203 189 187 189 192 195 197 193 175 171 180 176 137 115 132 135 131 136 139 146 144 129 132 136 125 156 183 194 200 208 213 217 224 240 260 264 264 266 268 268 267 269 268 258 243 238 234 226 224 224 228 232 233
178 176 179 180 182 188 192 202 210 212 195 183 176 173 186 192 197 205 207 210 204 199 199 198 197 197 201 200 203 212 207 205 204 190 186 190 192 189 195 200 188 182 185 180 162 144 147 150 149 148 146 153 154 143 132 127 124 143 177 192 199 203 209 215 223 241 257 265 272 273 272 273 274 274 273 268 255 248 245 241 233 226 226 230 233
179 182 189 194 199 205 208 213 213 207 194 183 177 177 188 195 200 206 210 213 209 209 205 203 204 206 211 210 213 218 214 210 207 205 200 200 200 195 196 200 198 192 187 179 166 163 164 163 169 168 164 169 173 170 157 144 144 150 171 191 203 212 217 218 221 237 247 254 265 273 277 282 285 283 280 279 274 265 260 254 246 235 229 228 231
181 185 194 206 210 212 215 212 208 201 188 182 184 187 191 191 193 198 208 213 212 214 212 210 211 213 215 216 221 223 222 219 212 217 213 210 209 204 202 204 206 200 194 189 173 169 173 170 175 186 186 184 190 192 180 170 167 165 173 189 208 227 235 227 222 231 243 251 259 268 275 285 294 295 290 290 290 285 278 267 258 251 243 236 233
182 191 204 219 218 218 217 204 198 190 182 187 191 194 196 196 194 190 197 205 212 217 218 220 220 220 220 219 224 227 228 223 219 221 215 215 216 213 215 213 213 208 205 206 188 176 176 172 174 184 191 191 199 209 201 191 189 185 187 198 209 225 238 238 234 235 242 251 258 265 269 272 284 295 296 296 297 296 293 282 271 265 256 250 244
186 201 219 225 222 219 206 193 190 185 183 191 196 201 206 209 211 207 197 193 201 210 217 224 225 225 224 222 222 223 228 225 221 222 218 220 220 219 224 221 219 214 211 216 208 191 182 179 180 183 191 199 200 210 211 202 203 210 205 210 216 221 233 242 243 242 246 250 254 259 264 265 268 281 291 295 298 299 298 290 285 278 267 261 257
197 208 220 223 223 214 199 194 192 191 194 200 210 219 225 226 224 219 208 196 189 193 202 207 212 217 220 225 223 219 224 225 221 221 223 224 221 221 227 230 229 218 212 218 221 215 201 194 198 202 208 214 207 211 214 205 209 221 215 217 224 223 228 240 247 249 252 250 251 255 258 258 258 266 278 287 294 297 296 292 292 289 279 270 264
208 208 215 220 220 215 209 204 198 197 201 209 222 229 231 228 220 214 206 193 175 168 182 188 195 203 209 218 225 227 225 223 219 219 224 226 224 224 226 231 233 226 219 217 219 223 221 214 220 224 219 218 217 217 213 208 215 222 221 225 227 224 226 238 246 249 253 250 253 257 256 254 254 257 264 274 283 289 292 292 293 293 288 280 270
213 211 214 214 211 207 200 199 200 202 206 208 214 215 209 195 188 187 183 177 165 152 163 180 195 202 201 206 216 225 226 223 218 213 216 220 224 225 223 223 226 227 224 218 212 214 218 219 229 224 213 209 209 205 202 206 219 223 229 235 234 234 235 239 242 244 248 252 259 261 254 250 251 255 257 263 271 279 286 291 295 296 294 289 282
217 217 213 206 194 181 170 175 187 195 194 188 189 184 165 165 171 162 150 156 163 160 163 175 191 201 208 210 208 213 220 224 222 218 219 219 217 219 219 216 217 218 217 215 209 206 209 217 244 223 205 202 199 193 195 204 221 229 232 235 237 242 244 245 245 243 243 248 256 257 252 248 250 255 256 260 266 274 282 288 295 298 297 294 291
215 215 210 200 182 171 159 153 158 161 158 159 166 160 142 145 154 154 152 155 164 165 163 173 187 196 211 224 223 213 214 221 223 222 223 223 216 213 215 211 211 209 210 212 207 206 212 217 241 232 212 206 202 198 200 208 224 235 234 233 238 245 248 250 253 251 247 250 254 249 248 248 249 252 254 258 263 270 277 284 290 295 296 295 293
209 210 207 196 181 172 158 148 148 146 143 148 154 146 134 133 137 143 146 142 160 169 162 170 184 203 231 244 252 247 230 223 225 223 218 216 211 210 213 213 211 207 207 211 208 212 221 224 230 232 229 221 212 208 209 214 224 232 235 237 241 246 248 249 254 255 252 256 259 251 245 245 247 250 251 253 258 265 272 278 284 290 294 296 296
206 208 204 196 187 176 163 152 150 149 146 147 147 139 133 133 132 133 125 112 138 166 172 196 214 231 242 247 251 253 252 240 231 228 222 221 217 212 213 216 215 207 205 209 210 215 225 232 232 230 230 226 219 215 212 215 223 229 232 234 239 243 246 247 249 253 254 257 261 254 246 244 245 246 247 249 254 261 267 272 277 284 289 294 297
204 207 203 196 193 184 172 160 155 156 154 151 147 141 142 145 143 141 122 109 125 138 145 164 208 236 244 246 243 242 246 244 238 230 225 225 224 218 217 221 223 217 211 210 212 215 220 227 229 227 228 226 223 218 214 217 224 226 227 230 237 244 248 246 244 248 253 257 260 256 247 243 243 243 243 246 251 258 264 269 273 279 285 288 293
203 205 202 197 195 188 177 168 164 161 159 156 153 150 152 157 157 155 139 129 129 117 108 103 89 87 248 252 247 241 239 238 234 227 223 220 220 220 216 219 224 225 222 220 220 222 223 226 227 227 229 230 228 219 215 221 227 226 227 230 235 244 248 243 239 243 248 251 255 256 250 244 243 243 243 244 249 256 261 267 272 276 280 283 286
204 204 201 198 197 190 181 176 173 168 165 165 162 158 160 169 174 170 165 161 152 123 92 82 72 67 66 66 234 239 238 233 226 223 225 223 221 222 215 211 215 216 216 220 224 229 232 234 236 236 235 234 233 224 218 224 231 230 231 235 240 246 247 239 235 237 243 246 249 254 253 247 242 241 242 244 248 253 259 265 269 273 276 278 281
204 203 202 200 200 195 188 183 180 176 173 172 170 167 170 179 185 178 184 193 178 153 89 76 72 67 64 61 59 39 251 234 226 223 224 224 224 225 220 215 216 213 210 210 214 222 231 235 239 243 244 242 241 235 228 228 235 233 231 238 243 244 242 239 239 241 244 247 248 251 253 251 244 241 242 245 249 253 258 263 267 271 273 274 277
204 206 204 201 203 202 193 187 187 184 179 175 172 173 178 186 189 186 194 202 190 178 101 80 77 72 67 59 54 45 26 245 215 219 225 229 230 229 225 223 224 226 224 219 215 215 219 224 231 239 243 245 247 248 243 237 239 239 234 235 237 239 243 245 245 246 248 250 252 252 252 252 249 245 245 248 252 256 260 262 264 267 269 270 274
205 208 207 204 206 209 198 190 192 191 186 177 176 184 194 199 200 200 203 199 189 182 125 84 80 78 74 67 64 56 45 47 88 184 216 230 238 240 233 227 228 230 230 229 228 226 223 221 224 229 236 243 247 252 250 244 246 248 244 240 237 240 249 254 252 251 253 254 254 253 251 251 250 249 249 251 252 256 260 262 263 265 266 268 273
208 207 205 206 209 211 205 195 195 197 191 183 183 195 206 210 210 211 213 203 190 182 153 125 88 82 79 74 72 66 61 57 58 68 88 152 217 249 243 233 229 230 232 233 234 237 236 235 235 236 240 245 247 252 254 253 253 253 250 247 245 243 246 248 248 252 258 258 255 252 252 250 248 247 249 252 253 254 259 262 263 264 265 268 272
210 205 203 208 211 212 211 202 199 200 197 192 192 199 207 210 209 209 210 206 199 190 175 180 186 97 85 78 74 68 67 66 65 66 66 72 78 75 70 239 232 232 237 241 244 247 248 247 247 248 251 255 257 258 260 261 259 257 255 255 255 252 251 249 246 246 252 258 257 255 255 252 247 246 247 251 254 254 257 262 264 264 265 267 271
209 207 206 209 211 212 212 207 203 202 201 200 200 203 208 211 210 211 211 208 202 201 199 206 228 232 221 74 76 73 71 69 72 73 72 73 73 74 72 63 42 256 245 245 250 254 257 255 253 256 259 261 263 266 267 266 265 265 262 260 260 258 257 258 258 256 254 254 254 254 255 252 247 245 244 247 252 254 257 260 263 265 267 268 271
209 210 209 210 211 212 211 209 208 207 206 208 207 207 211 212 212 214 216 211 203 206 214 222 228 231 229 223 81 82 84 77 77 80 79 77 75 75 71 62 53 11 303 276 268 264 265 265 261 261 262 262 262 264 267 268 267 269 268 267 267 265 262 263 264 264 262 258 253 253 253 247 243 241 240 242 247 251 255 259 261 263 265 267 270
209 209 210 211 212 212 212 211 211 211 213 215 212 211 214 215 216 218 220 216 209 214 222 227 230 231 225 221 230 154 122 98 93 93 87 78 66 64 58 45 30 350 312 291 286 279 274 270 266 264 262 262 263 262 263 264 266 269 268 268 272 272 270 269 268 268 269 265 259 256 252 246 243 241 238 242 246 247 250 254 256 258 261 263 268